Starlink 2564

operational
NORAD ID: 48284 Int'l Des: 2021-036 Owner: SPXS Country: US Constellation: starlink
LEOCIRCULARSTARLINK_TYPE

Über Starlink 2564

Beschreibung wird geladen...

Live-Position

3D-Globus wird geladen...

Nächste Überflüge

Höhenverlauf

Altitude vs Time

uPlot chart will show altitude changes over time

Zweizeiliger Elementsatz

1 48284U 21036J 25351.98814590 .00000957 00000-0 83125-4 0 9992
2 48284 53.0562 88.3906 0001246 83.0750 277.0381 15.06397838255997
Epoch: 17. Dez. 2025 • Age: 17 hours

Aktueller Status

Höhe 566.4 km
Geschwindigkeit 7.58 km/s
Subsatellitenpunkt -52.79°S, 5.6°E
Startdatum 29. Apr. 2021
Alter 4.6 years
Typ internet

Technische Details

Klassifizierung Payload
Masse 260.00 kg
Trockenmasse 248.00 kg
Gesamtmasse 260.00 kg
Länge 0.20 m
Durchmesser 2.80 m
Spannweite 9.00 m
Form Box + pan
Hersteller SPXS
Bus-Typ Starlink
Phasenstatus In Orbit
Besitzer/Staat SPXS/US

Große Konstellationen

Loading constellations...